{"data":{"norad_id":66360,"epoch":"2026-09-20T18:22:11.737632Z","epoch_age_seconds":70441,"freshness":"FRESH","line1":"1 66360U 25254N   26263.76541363  .00019360  00000+0  58297-3 0  9995","line2":"2 66360  53.1593  44.1431 0000781 100.3936 259.7154 15.34381871 48875","mean_motion":15.34381871,"eccentricity":7.81e-5,"inclination_deg":53.1593,"raan_deg":44.1431,"arg_perigee_deg":100.3936,"mean_anomaly_deg":259.7154,"bstar":0.00058297,"rev_number":4887,"period_min":93.848866909612,"perigee_km":462.22285011507,"apogee_km":463.29139777723,"semimajor_km":6840.8941239462,"source":"CELESTRAK","updated_at":"2026-09-21T09:00:35.881545Z"}}